Bangkok (Suvarnabhumi), Thailand

6:37 PM +07 on December 16, 2019 (GMT +0700)
Bangkok (Suvarnabhumi)

Weather History for VTBS - October, 2019

Change the Weather History Date:

Monday, October 14, 2019

  Actual Average (WUND) Record (WUND)
Temperature  
Mean Temperature 86 °F -  
Max Temperature 96 °F 90 °F - (-1)
Min Temperature 75 °F 74 °F - (-1)
Cooling Degree Days 20    
Growing Degree Days 36 (Base 50)    
Moisture  
Dew Point 75 °F    
Average Humidity 75    
Maximum Humidity 94    
Minimum Humidity 33    
Precipitation  
Precipitation 0.00 in 0.19 in - ()
Sea Level Pressure  
Sea Level Pressure 29.86 in    
Wind  
Wind Speed 5 mph ()    
Max Wind Speed 14 mph    
Max Gust Speed 25 mph    
Visibility 5.9 miles    
Events Rain , Thunderstorm    
Averages and records for this station are not official NWS values.
T = Trace of Precipitation, MM = Missing Value Source: Averaged Metar Reports

Daily Weather History Graph

Daily Weather History Graph

Search for Another Location

Airport or City:

Astronomy

Oct. 14, 2019 Rise Set
Actual Time 6:06 AM +07 5:57 PM +07
Civil Twilight 5:44 AM +07 6:19 PM +07
Nautical Twilight 5:20 AM +07 6:44 PM +07
Astronomical Twilight 4:55 AM +07 7:08 PM +07
Moon 6:29 PM +07 (10/14) 6:16 AM +07 (10/14)
Length of Visible Light 12h 34m
Length of Day
11h 51m
Full, 100% of the Moon is Illuminated
Oct 14
Full
Oct 21
Last Quarter
Oct 28
New
Nov 4
First Quarter
Nov 12
Full

Hourly Weather History & Observations

Time (+07) Temp. Heat Index Dew Point Humidity Pressure Visibility Wind Dir Wind Speed Gust Speed Precip Events Conditions
12:30 AM 78.8 °F - 75.2 °F 89% 29.86 in 6.2 mi Calm Calm - N/A   Partly Cloudy
1:00 AM 77.0 °F - 75.2 °F 94% 29.86 in 6.2 mi NNW 3.5 mph - N/A   Partly Cloudy
1:30 AM 78.8 °F - 77.0 °F 94% 29.83 in 6.2 mi Variable 4.6 mph - N/A   Partly Cloudy
2:00 AM 80.6 °F 87.1 °F 77.0 °F 89% 29.83 in 6.2 mi ESE 5.8 mph - N/A   Partly Cloudy
2:30 AM 82.4 °F 89.5 °F 75.2 °F 79% 29.83 in 6.2 mi SSE 4.6 mph - N/A   Mostly Cloudy
3:00 AM 82.4 °F 89.5 °F 75.2 °F 79% 29.83 in 6.2 mi ESE 4.6 mph - N/A   Mostly Cloudy
3:30 AM 80.6 °F 87.1 °F 77.0 °F 89% 29.83 in 5.6 mi East 5.8 mph - N/A   Mostly Cloudy
4:00 AM 80.6 °F 87.1 °F 77.0 °F 89% 29.83 in 5.6 mi East 3.5 mph - N/A   Mostly Cloudy
4:30 AM 80.6 °F 87.1 °F 77.0 °F 89% 29.83 in 5.6 mi NE 5.8 mph - N/A   Mostly Cloudy
5:00 AM 78.8 °F - 77.0 °F 94% 29.83 in 5.6 mi NE 3.5 mph - N/A   Mostly Cloudy
5:30 AM 80.6 °F 87.1 °F 77.0 °F 89% 29.86 in 5.6 mi ENE 3.5 mph - N/A   Mostly Cloudy
6:00 AM 80.6 °F 87.1 °F 77.0 °F 89% 29.86 in 5.6 mi ENE 3.5 mph - N/A   Scattered Clouds
6:30 AM 78.8 °F - 77.0 °F 94% 29.86 in 5.6 mi North 3.5 mph - N/A   Mostly Cloudy
7:00 AM 79 °F - 78 °F 94% 29.87 in 2 mi East 3.5 mph - - Thunderstorm Thunderstorm
7:00 AM 80.6 °F 87.1 °F 77.0 °F 89% 29.89 in 5.6 mi ENE 5.8 mph - N/A Thunderstorm Thunderstorm
7:30 AM 75.2 °F - 73.4 °F 94% 29.89 in 2.5 mi East 13.8 mph 25.3 mph N/A Rain , Thunderstorm Thunderstorms and Rain
8:00 AM 78.8 °F - 75.2 °F 89% 29.89 in 6.2 mi East 9.2 mph - N/A Thunderstorm Mostly Cloudy
8:30 AM 80.6 °F 86.2 °F 75.2 °F 84% 29.92 in 6.2 mi NE 5.8 mph - N/A   Mostly Cloudy
9:00 AM 82.4 °F 90.9 °F 77.0 °F 84% 29.92 in 6.2 mi NNE 4.6 mph - N/A   Scattered Clouds
9:30 AM 84.2 °F 94.1 °F 77.0 °F 79% 29.95 in 6.2 mi NE 5.8 mph - N/A   Partly Cloudy
10:00 AM 89 °F - 77 °F 60% 29.92 in 6 mi ENE 10.4 mph - -   Partly Cloudy
10:00 AM 84.2 °F 92.3 °F 75.2 °F 74% 29.95 in 6.2 mi East 4.6 mph - N/A   Scattered Clouds
10:30 AM 86.0 °F 95.1 °F 75.2 °F 70% 29.95 in 6.2 mi SE 4.6 mph - N/A   Partly Cloudy
11:00 AM 87.8 °F 97.6 °F 75.2 °F 66% 29.92 in 6.2 mi ENE 8.1 mph - N/A   Partly Cloudy
11:30 AM 89.6 °F 99.8 °F 75.2 °F 62% 29.92 in 6.2 mi East 6.9 mph - N/A   Partly Cloudy
12:00 PM 89.6 °F 99.8 °F 75.2 °F 62% 29.89 in 6.2 mi East 6.9 mph - N/A   Partly Cloudy
12:30 PM 89.6 °F 102.2 °F 77.0 °F 66% 29.89 in 6.2 mi Variable 5.8 mph - N/A   Partly Cloudy
1:00 PM 93 °F - 77 °F 52% 29.85 in 6 mi ENE 5.8 mph - -   Scattered Clouds
1:30 PM 89.6 °F 99.8 °F 75.2 °F 62% 29.86 in 6.2 mi East 5.8 mph - N/A   Scattered Clouds
2:00 PM 91.4 °F 100.1 °F 73.4 °F 55% 29.83 in 6.2 mi East 8.1 mph - N/A   Scattered Clouds
2:30 PM 91.4 °F 100.1 °F 73.4 °F 55% 29.83 in 6.2 mi East 5.8 mph - N/A   Scattered Clouds
3:00 PM 91.4 °F 102.5 °F 75.2 °F 59% 29.80 in 6.2 mi East 6.9 mph - N/A   Partly Cloudy
3:30 PM 91.4 °F 100.1 °F 73.4 °F 55% 29.80 in 6.2 mi East 4.6 mph - N/A   Partly Cloudy
4:00 PM 96 °F - 70 °F 33% 29.79 in 6 mi Calm Calm - -   Clear
4:00 PM 91.4 °F 100.1 °F 73.4 °F 55% 29.77 in 6.2 mi East 5.8 mph - N/A   Partly Cloudy
4:30 PM 91.4 °F 102.5 °F 75.2 °F 59% 29.77 in 6.2 mi East 5.8 mph - N/A   Partly Cloudy
5:00 PM 87.8 °F 97.6 °F 75.2 °F 66% 29.80 in 6.2 mi SSE 8.1 mph - N/A   Partly Cloudy
5:30 PM 87.8 °F 97.6 °F 75.2 °F 66% 29.80 in 6.2 mi SSE 6.9 mph - N/A   Partly Cloudy
6:00 PM 87.8 °F 97.6 °F 75.2 °F 66% 29.80 in 6.2 mi South 9.2 mph - N/A   Partly Cloudy
6:30 PM 82.4 °F 89.5 °F 75.2 °F 79% 29.83 in 6.2 mi SSW 5.8 mph - N/A   Partly Cloudy
7:00 PM 82.4 °F 89.5 °F 75.2 °F 79% 29.83 in 6.2 mi SSW 5.8 mph - N/A   Partly Cloudy
7:30 PM 86.0 °F 93.4 °F 73.4 °F 66% 29.86 in 6.2 mi South 5.8 mph - N/A   Partly Cloudy
8:00 PM 82.4 °F 89.5 °F 75.2 °F 79% 29.86 in 6.2 mi Variable 2.3 mph - N/A   Partly Cloudy
8:30 PM 82.4 °F 89.5 °F 75.2 °F 79% 29.89 in 6.2 mi Variable 2.3 mph - N/A   Partly Cloudy
9:00 PM 82.4 °F 89.5 °F 75.2 °F 79% 29.89 in 6.2 mi NNE 9.2 mph - N/A   Partly Cloudy
9:30 PM 82.4 °F 88.2 °F 73.4 °F 74% 29.89 in 6.2 mi NNE 8.1 mph - N/A   Partly Cloudy
10:00 PM 82 °F - 78 °F 84% 29.91 in 6 mi Calm Calm - -   Clear
10:00 PM 82.4 °F 88.2 °F 73.4 °F 74% 29.92 in 6.2 mi NNE 6.9 mph - N/A   Partly Cloudy
10:30 PM 84.2 °F 90.9 °F 73.4 °F 70% 29.92 in 6.2 mi NE 5.8 mph - N/A   Partly Cloudy
11:00 PM 82.4 °F 88.2 °F 73.4 °F 74% 29.92 in 6.2 mi NNE 5.8 mph - N/A   Mostly Cloudy
11:30 PM 82.4 °F 89.5 °F 75.2 °F 79% 29.92 in 6.2 mi NNE 4.6 mph - N/A   Mostly Cloudy